Location: Kelshall
(52.0000°N, 0.0500°W)
Time: 21:32:31
(UTC+00:00)

ATLAS 2AS CENTAUR R/B - Pass Details

Date: 19 January 2021
Orbit: 947 x 1265 km, 63.7° (Epoch: 13 February)

Event Time Altitude Azimuth Distance (km) Brightness Sun altitude
Rises 17:02:11 0° 219° (SW) 4,200 7.2 -5.8°
Reaches altitude 10° 17:04:58 10° 218° (SW) 3,244 6.4 -6.2°
Maximum altitude 17:12:54 84° 132° (SE) 1,270 3.1 -7.3°
Drops below altitude 10° 17:20:41 10° 46° (NE) 3,184 4.6 -8.4°
Enters shadow 17:21:23 - 46° (NE) 3,424 4.8 -8.5°
